CG6040 KSAN-KAVX

Flight info

Callsign CG6040
Flight time 0h 27m
Altitude 1500
Route KSAN DCT COASTLINE NORTHBOUND DCT CATALINA ISLAND DCT KAVX
Aircraft H60/M-SDFGIRY/S

Departure

Time 2026-04-25 16:04
Airport San Diego International Airport (KSAN)

Arrival

Time 2026-04-25 16:32
Airport Catalina Airport (KAVX)
Time Latitude Longitude Altitude Speed Heading
2026-04-25 15:48 32.72636 -117.18180 15 ft 0 kts 291°
2026-04-25 15:58 32.72632 -117.18168 16 ft 3 kts 294°
2026-04-25 15:58 32.72625 -117.18147 6 ft 0 kts 289°
2026-04-25 16:03 32.72625 -117.18148 13 ft 1 kts 289°
2026-04-25 16:03 32.72632 -117.18159 55 ft 4 kts 276°
2026-04-25 16:03 32.72535 -117.18327 183 ft 72 kts 238°
2026-04-25 16:04 32.72108 -117.19075 240 ft 132 kts 242°
2026-04-25 16:04 32.71753 -117.20112 446 ft 137 kts 256°
2026-04-25 16:04 32.71514 -117.21205 891 ft 136 kts 256°
2026-04-25 16:04 32.71426 -117.22409 969 ft 163 kts 275°
2026-04-25 16:05 32.71774 -117.23782 733 ft 178 kts 290°
2026-04-25 16:05 32.72498 -117.24910 925 ft 174 kts 321°
2026-04-25 16:05 32.74927 -117.25574 1172 ft 184 kts 347°
2026-04-25 16:06 32.76210 -117.25856 1117 ft 188 kts 346°
2026-04-25 16:06 32.77355 -117.26350 1557 ft 156 kts 336°
2026-04-25 16:06 32.78321 -117.26592 2548 ft 137 kts 351°
2026-04-25 16:06 32.79406 -117.26687 2058 ft 185 kts 353°
2026-04-25 16:07 32.80740 -117.26970 1445 ft 190 kts 347°
2026-04-25 16:07 32.81562 -117.27229 1550 ft 179 kts 340°
2026-04-25 16:07 32.83174 -117.27851 960 ft 178 kts 341°
2026-04-25 16:07 32.84335 -117.28283 1273 ft 176 kts 343°
2026-04-25 16:08 32.85519 -117.28728 1398 ft 179 kts 340°
2026-04-25 16:08 32.86690 -117.29311 1286 ft 190 kts 330°
2026-04-25 16:08 32.87887 -117.30009 816 ft 188 kts 345°
2026-04-25 16:08 32.89088 -117.30259 1231 ft 165 kts 346°
2026-04-25 16:09 32.90133 -117.30671 1782 ft 165 kts 339°
2026-04-25 16:09 32.91410 -117.31114 1001 ft 198 kts 344°
2026-04-25 16:09 32.92686 -117.31667 795 ft 194 kts 341°
2026-04-25 16:09 32.93983 -117.31963 1020 ft 191 kts 348°
2026-04-25 16:10 32.95260 -117.32228 835 ft 186 kts 348°
2026-04-25 16:10 32.96522 -117.32492 1060 ft 181 kts 348°
2026-04-25 16:10 32.97792 -117.32764 988 ft 184 kts 348°
2026-04-25 16:10 32.99052 -117.33033 943 ft 188 kts 348°
2026-04-25 16:11 33.00326 -117.33395 952 ft 190 kts 340°
2026-04-25 16:11 33.01488 -117.34131 1010 ft 187 kts 322°
2026-04-25 16:11 33.02339 -117.35227 1006 ft 175 kts 293°
2026-04-25 16:11 33.02861 -117.36531 961 ft 179 kts 291°
2026-04-25 16:12 33.03346 -117.37913 983 ft 180 kts 291°
2026-04-25 16:12 33.03826 -117.39290 981 ft 179 kts 291°
2026-04-25 16:12 33.04353 -117.40635 956 ft 182 kts 295°
2026-04-25 16:12 33.04737 -117.41519 967 ft 181 kts 296°
2026-04-25 16:13 33.05500 -117.43305 965 ft 184 kts 295°
2026-04-25 16:13 33.06089 -117.44660 971 ft 185 kts 295°
2026-04-25 16:13 33.06688 -117.46023 974 ft 186 kts 295°
2026-04-25 16:13 33.07283 -117.47398 973 ft 187 kts 295°
2026-04-25 16:14 33.07863 -117.48784 977 ft 186 kts 295°
2026-04-25 16:14 33.08438 -117.50153 972 ft 183 kts 296°
2026-04-25 16:14 33.09009 -117.51508 972 ft 182 kts 295°
2026-04-25 16:14 33.09572 -117.52856 972 ft 181 kts 295°
2026-04-25 16:15 33.10134 -117.54202 968 ft 181 kts 295°
2026-04-25 16:15 33.10694 -117.55546 969 ft 181 kts 295°
2026-04-25 16:15 33.11254 -117.56873 968 ft 181 kts 296°
2026-04-25 16:15 33.11814 -117.58218 971 ft 181 kts 295°
2026-04-25 16:16 33.12378 -117.59557 971 ft 180 kts 295°
2026-04-25 16:16 33.12958 -117.60884 968 ft 180 kts 296°
2026-04-25 16:16 33.13541 -117.62210 971 ft 180 kts 296°
2026-04-25 16:16 33.14119 -117.63544 969 ft 181 kts 296°
2026-04-25 16:17 33.14693 -117.64881 968 ft 181 kts 296°
2026-04-25 16:17 33.15259 -117.66219 967 ft 180 kts 296°
2026-04-25 16:17 33.15822 -117.67563 966 ft 181 kts 296°
2026-04-25 16:17 33.16386 -117.68907 966 ft 181 kts 296°
2026-04-25 16:18 33.16945 -117.70225 968 ft 180 kts 296°
2026-04-25 16:18 33.17137 -117.70673 968 ft 180 kts 296°
2026-04-25 16:18 33.18076 -117.72884 971 ft 180 kts 296°
2026-04-25 16:18 33.18645 -117.74209 971 ft 179 kts 296°
2026-04-25 16:19 33.19211 -117.75533 972 ft 179 kts 296°
2026-04-25 16:19 33.19777 -117.76859 971 ft 179 kts 296°
2026-04-25 16:19 33.20341 -117.78189 967 ft 180 kts 296°
2026-04-25 16:20 33.21480 -117.80853 969 ft 181 kts 296°
2026-04-25 16:20 33.22057 -117.82198 970 ft 182 kts 296°
2026-04-25 16:20 33.23216 -117.84906 969 ft 183 kts 296°
2026-04-25 16:21 33.23795 -117.86257 970 ft 183 kts 296°
2026-04-25 16:21 33.24374 -117.87614 965 ft 183 kts 296°
2026-04-25 16:21 33.24956 -117.88964 967 ft 183 kts 296°
2026-04-25 16:21 33.25538 -117.90310 966 ft 182 kts 296°
2026-04-25 16:22 33.26114 -117.91656 967 ft 182 kts 296°
2026-04-25 16:22 33.26688 -117.93006 966 ft 182 kts 296°
2026-04-25 16:22 33.27260 -117.94336 965 ft 182 kts 296°
2026-04-25 16:22 33.27826 -117.95673 973 ft 172 kts 296°
2026-04-25 16:23 33.28379 -117.96972 966 ft 177 kts 296°
2026-04-25 16:23 33.28945 -117.98295 967 ft 180 kts 296°
2026-04-25 16:23 33.29525 -117.99626 966 ft 181 kts 296°
2026-04-25 16:23 33.30105 -118.00966 964 ft 182 kts 296°
2026-04-25 16:24 33.30687 -118.02303 962 ft 181 kts 296°
2026-04-25 16:24 33.31268 -118.03640 964 ft 181 kts 296°
2026-04-25 16:24 33.31847 -118.04970 962 ft 181 kts 296°
2026-04-25 16:24 33.32421 -118.06309 966 ft 181 kts 296°
2026-04-25 16:25 33.32987 -118.07646 958 ft 178 kts 296°
2026-04-25 16:25 33.33166 -118.08073 967 ft 177 kts 296°
2026-04-25 16:25 33.34078 -118.10264 959 ft 175 kts 296°
2026-04-25 16:25 33.34618 -118.11571 961 ft 175 kts 296°
2026-04-25 16:26 33.35152 -118.12852 982 ft 174 kts 296°
2026-04-25 16:26 33.35695 -118.14149 995 ft 174 kts 296°
2026-04-25 16:26 33.36241 -118.15453 1001 ft 177 kts 296°
2026-04-25 16:26 33.36803 -118.16780 998 ft 179 kts 296°
2026-04-25 16:27 33.37369 -118.18118 993 ft 180 kts 296°
2026-04-25 16:27 33.37937 -118.19463 995 ft 179 kts 296°
2026-04-25 16:27 33.38340 -118.20772 997 ft 162 kts 282°
2026-04-25 16:27 33.38612 -118.22135 994 ft 173 kts 282°
2026-04-25 16:28 33.38893 -118.23556 988 ft 178 kts 282°
2026-04-25 16:28 33.39173 -118.25009 989 ft 179 kts 282°
2026-04-25 16:28 33.39401 -118.26469 987 ft 178 kts 278°
2026-04-25 16:28 33.39558 -118.27942 990 ft 179 kts 276°
2026-04-25 16:29 33.39662 -118.29422 999 ft 178 kts 273°
2026-04-25 16:29 33.39711 -118.30899 994 ft 173 kts 271°
2026-04-25 16:29 33.39718 -118.32263 1084 ft 155 kts 270°
2026-04-25 16:29 33.39672 -118.33506 1306 ft 143 kts 267°
2026-04-25 16:30 33.39595 -118.34671 1514 ft 142 kts 269°
2026-04-25 16:30 33.39860 -118.35795 1633 ft 134 kts 293°
2026-04-25 16:30 33.40292 -118.36718 2095 ft 126 kts 304°
2026-04-25 16:30 33.40805 -118.37543 2574 ft 121 kts 306°
2026-04-25 16:31 33.41225 -118.38429 2906 ft 126 kts 295°
2026-04-25 16:31 33.41419 -118.39526 2221 ft 145 kts 272°
2026-04-25 16:31 33.41123 -118.40526 1658 ft 117 kts 242°
2026-04-25 16:31 33.40725 -118.41191 1564 ft 79 kts 243°
2026-04-25 16:32 33.40539 -118.41502 1584 ft 11 kts 247°
2026-04-25 16:32 33.40471 -118.41510 1586 ft 22 kts 165°
2026-04-25 16:32 33.40396 -118.41512 1595 ft 6 kts 236°
2026-04-25 16:32 33.40387 -118.41528 1589 ft 0 kts 233°